WI1SKY Weather Reports


Display with metric or nautical units.
time (UTC)temp
F
wind
direction
speed
MPH
gust
MPH
rain 1hr
in
rain 24hr
in
rain mn
in
humidity
%
barometer
mb
20260903214228 82 159 1.0 4.0 0.00 0.16 0.16 75 1010.5
20260903213729 82 159 2.0 5.0 0.00 0.16 0.16 73 1010.6
20260903213229 82 159 2.0 5.0 0.00 0.16 0.16 73 1010.6
20260903212729 82 157 1.0 3.0 0.00 0.16 0.16 74 1010.5
20260903212229 82 98 1.0 3.0 0.00 0.16 0.16 75 1010.3
20260903212045 82 100 1.0 3.0 0.00 0.16 0.16 76 1010.0
20260903211229 82 100 1.0 4.0 0.00 0.16 0.16 75 1009.9
20260903210730 82 92 1.0 6.0 0.00 0.16 0.16 75 1009.9
20260903210228 82 92 1.0 6.0 0.00 0.16 0.16 76 1010.0
20260903205729 82 106 1.0 4.0 0.00 0.16 0.16 75 1010.1
20260903205228 81 111 0.0 0.0 0.00 0.16 0.16 74 1010.3
20260903204728 81 112 1.0 3.0 0.00 0.16 0.16 75 1010.3
20260903204229 81 90 2.0 3.0 0.00 0.16 0.16 75 1010.1
20260903203729 81 90 2.0 3.0 0.00 0.16 0.16 74 1010.3
20260903203229 81 90 2.0 3.0 0.00 0.16 0.16 74 1010.5
20260903202729 82 90 2.0 4.0 0.00 0.16 0.16 74 1010.5
20260903202230 82 90 2.0 4.0 0.00 0.16 0.16 73 1010.6
20260903201729 82 69 1.0 4.0 0.00 0.16 0.16 73 1010.5
20260903201229 82 101 1.0 4.0 0.00 0.16 0.16 74 1010.4
20260903201052 82 103 2.0 4.0 0.00 0.16 0.16 74 1010.4
20260903200229 82 77 2.0 6.0 0.00 0.16 0.16 75 1010.4
20260903195728 82 100 1.0 6.0 0.01 0.16 0.16 72 1010.6
20260903195541 82 279 0.0 0.0 0.01 0.16 0.16 77 1010.7
20260903194732 82 277 0.0 0.0 0.01 0.16 0.16 76 1011.0
20260903194358 82 277 0.0 0.0 0.01 0.16 0.16 77 1011.3
20260903194322 82 277 0.0 0.0 0.01 0.16 0.16 76 1011.1
20260903193231 82 277 0.0 0.0 0.01 0.16 0.16 75 1011.2
20260903192730 82 277 0.0 0.0 0.01 0.16 0.16 75 1011.2
20260903192229 82 277 0.0 0.0 0.01 0.16 0.16 73 1011.1
20260903191729 82 277 0.0 0.0 0.01 0.16 0.16 75 1011.3
20260903191229 82 257 0.0 0.0 0.01 0.16 0.16 75 1011.3
20260903190730 81 246 0.0 0.0 0.01 0.16 0.16 78 1011.1
20260903190230 81 245 0.0 0.0 0.01 0.16 0.16 77 1011.1
20260903185731 80 241 0.0 1.0 0.00 0.15 0.15 78 1011.0
20260903185229 80 235 0.0 1.0 0.00 0.15 0.15 80 1010.9
20260903184728 80 235 0.0 0.0 0.00 0.15 0.15 79 1010.6
20260903184230 79 235 0.0 0.0 0.00 0.15 0.15 79 1010.5
20260903183729 79 235 0.0 0.0 0.00 0.15 0.15 81 1010.6
20260903183230 79 235 0.0 0.0 0.00 0.15 0.15 79 1010.7
20260903182733 78 235 0.0 0.0 0.00 0.15 0.15 78 1010.7
20260903182232 78 235 0.0 0.0 0.00 0.15 0.15 80 1010.5
20260903181730 78 235 0.0 0.0 0.00 0.15 0.15 81 1010.6
20260903181228 78 235 1.0 3.0 0.00 0.15 0.15 80 1010.7
20260903181030 77 235 1.0 3.0 0.00 0.15 0.15 81 1010.9
20260903180215 77 235 0.0 3.0 0.00 0.15 0.15 83 1010.9
20260903175714 77 221 0.0 1.0 0.00 0.15 0.15 86 1010.9
20260903175218 76 207 0.0 0.0 0.00 0.15 0.15 87 1010.7
20260903174715 76 207 0.0 0.0 0.00 0.15 0.15 87 1010.6
20260903174511 75 207 0.0 0.0 0.00 0.15 0.15 88 1010.7
20260903174014 75 94 0.0 0.0 0.00 0.15 0.15 90 1010.6
20260903173212 74 86 0.0 0.0 0.00 0.15 0.15 90 1010.8
20260903172712 74 78 0.0 0.0 0.00 0.15 0.15 91 1011.0
20260903172206 74 78 0.0 1.0 0.00 0.15 0.15 92 1010.9
20260903171707 73 78 0.0 1.0 0.00 0.15 0.15 93 1011.1
20260903171204 73 78 1.0 3.0 0.00 0.15 0.15 93 1010.9
20260903170702 73 78 1.0 3.0 0.00 0.15 0.15 93 1011.1
20260903170205 73 78 1.0 2.0 0.00 0.15 0.15 93 1010.9
20260903165702 73 78 1.0 2.0 0.00 0.15 0.15 93 1011.1
20260903165201 73 78 1.0 3.0 0.03 0.15 0.15 93 1011.3
20260903164704 72 78 1.0 3.0 0.03 0.15 0.15 93 1011.1
20260903164200 72 166 2.0 3.0 0.03 0.15 0.15 92 1011.3
20260903163702 72 166 2.0 3.0 0.03 0.15 0.15 92 1011.8
20260903163201 72 166 2.0 5.0 0.03 0.15 0.15 92 1011.9
20260903162701 72 166 4.0 6.0 0.03 0.15 0.15 92 1011.6
20260903162201 72 166 4.0 6.0 0.03 0.15 0.15 92 1011.3
20260903162005 72 170 3.0 7.0 0.03 0.15 0.15 92 1011.2
20260903161201 72 96 3.0 7.0 0.03 0.15 0.15 92 1010.7
20260903160701 72 106 3.0 7.0 0.03 0.15 0.15 91 1010.9
20260903160508 73 88 1.0 4.0 0.03 0.15 0.15 91 1011.4
20260903155700 73 88 1.0 4.0 0.03 0.15 0.14 92 1012.2
20260903155200 73 88 2.0 4.0 0.00 0.12 0.12 91 1012.4
20260903154702 73 91 2.0 4.0 0.00 0.12 0.12 91 1011.8
20260903154201 73 91 2.0 4.0 0.00 0.12 0.12 91 1011.8
20260903153701 72 100 2.0 4.0 0.00 0.12 0.12 91 1011.8
20260903153201 72 81 1.0 4.0 0.00 0.12 0.12 91 1011.7
20260903152955 72 91 0.0 3.0 0.00 0.12 0.12 92 1011.6
20260903152200 72 128 0.0 0.0 0.00 0.12 0.12 92 1011.3
20260903151956 72 128 0.0 0.0 0.00 0.12 0.12 92 1011.2
20260903151457 72 129 0.0 0.0 0.00 0.12 0.12 93 1011.3
20260903150702 72 129 0.0 0.0 0.00 0.12 0.12 93 1011.3
20260903150203 72 129 1.0 2.0 0.00 0.12 0.12 94 1011.5
20260903145704 71 129 1.0 2.0 0.00 0.12 0.12 94 1011.3
20260903145202 71 129 1.0 2.0 0.00 0.12 0.12 94 1011.3
20260903144702 71 129 0.0 2.0 0.01 0.12 0.12 94 1011.1
20260903144201 71 129 0.0 2.0 0.01 0.12 0.12 94 1011.1
20260903143700 71 132 0.0 0.0 0.01 0.12 0.12 94 1011.3
20260903143204 71 132 0.0 0.0 0.02 0.12 0.12 94 1011.4
20260903142701 70 231 0.0 0.0 0.03 0.12 0.12 93 1011.3
20260903142201 70 231 0.0 0.0 0.03 0.12 0.12 93 1011.5
20260903142006 70 220 0.0 0.0 0.04 0.12 0.12 92 1011.4
20260903141159 70 220 0.0 0.0 0.04 0.12 0.12 92 1011.4
20260903140657 70 220 0.0 0.0 0.05 0.12 0.12 92 1011.1
20260903140152 71 220 0.0 0.0 0.06 0.12 0.12 91 1011.1
20260903135645 71 220 0.0 0.0 0.06 0.12 0.12 91 1011.1
20260903135140 71 221 0.0 0.0 0.07 0.12 0.12 91 1011.3
20260903134638 71 221 0.0 0.0 0.06 0.11 0.11 90 1011.5
20260903134136 71 221 0.0 2.0 0.06 0.11 0.11 89 1011.9
20260903133636 71 221 0.0 3.0 0.06 0.11 0.11 89 1012.0
20260903133133 71 221 0.0 3.0 0.05 0.10 0.10 88 1012.0
20260903132634 71 221 1.0 3.0 0.05 0.09 0.09 88 1012.2
20260903132134 72 221 0.0 3.0 0.05 0.09 0.09 88 1012.7
20260903131635 72 174 1.0 3.0 0.04 0.08 0.08 88 1012.8
20260903131133 72 223 2.0 3.0 0.04 0.08 0.07 88 1012.9
20260903130633 72 223 2.0 4.0 0.03 0.07 0.07 89 1012.8
20260903130134 72 223 3.0 5.0 0.03 0.06 0.06 89 1012.8
20260903125938 72 215 3.0 5.0 0.03 0.06 0.06 89 1012.7
20260903125429 72 194 4.0 7.0 0.02 0.05 0.05 90 1012.6
20260903124632 71 196 4.0 7.0 0.04 0.05 0.05 92 1012.7
20260903124132 71 195 3.0 5.0 0.05 0.05 0.05 93 1012.8
20260903123631 71 185 1.0 4.0 0.05 0.05 0.05 93 1012.6
20260903123132 71 197 1.0 3.0 0.05 0.05 0.05 94 1012.5
20260903122629 71 217 1.0 3.0 0.04 0.04 0.04 94 1012.7
20260903122129 71 177 1.0 4.0 0.04 0.04 0.04 95 1012.6
20260903121929 71 235 1.0 6.0 0.04 0.04 0.04 95 1012.7
20260903121129 71 207 1.0 6.0 0.04 0.04 0.04 95 1012.6
20260903120929 71 212 1.0 3.0 0.03 0.03 0.03 95 1012.7
20260903120129 70 229 2.0 3.0 0.03 0.03 0.03 95 1012.6
20260903115629 70 233 1.0 3.0 0.03 0.03 0.03 95 1012.4
20260903115128 70 223 0.0 2.0 0.03 0.03 0.03 95 1012.1
20260903114629 70 223 0.0 2.0 0.01 0.02 0.00 95 1012.1
20260903114131 70 223 0.0 2.0 0.00 0.01 0.00 95 1011.8
20260903113631 70 223 0.0 0.0 0.00 0.01 0.00 95 1011.4
20260903113131 70 223 0.0 0.0 0.00 0.01 0.00 95 1011.2
20260903112636 70 223 0.0 0.0 0.00 0.01 0.00 95 1011.1
20260903112129 70 223 0.0 0.0 0.00 0.01 0.00 95 1011.0
20260903111628 69 223 0.0 0.0 0.00 0.01 0.00 95 1010.8
20260903111129 69 223 0.0 0.0 0.00 0.01 0.00 95 1010.8
20260903110748 69 223 0.0 0.0 0.00 0.01 0.00 94 1010.9
20260903110721 69 223 0.0 0.0 0.00 0.01 0.00 95 1010.8
20260903105629 70 223 0.0 0.0 0.00 0.01 0.00 94 1010.9
20260903105130 70 223 0.0 0.0 0.00 0.01 0.00 94 1010.9
20260903104629 70 223 0.0 0.0 0.00 0.02 0.00 94 1010.8
20260903104129 70 223 0.0 0.0 0.00 0.09 0.00 94 1010.5
20260903103629 70 223 0.0 0.0 0.00 0.14 0.00 94 1010.5
20260903103129 70 223 0.0 0.0 0.00 0.15 0.00 94 1010.4
20260903102934 70 223 0.0 0.0 0.00 0.15 0.00 94 1010.4
20260903102442 70 223 0.0 0.0 0.00 0.15 0.00 94 1010.3
20260903101941 70 223 0.0 0.0 0.00 0.15 0.00 94 1010.1
20260903101130 70 223 0.0 0.0 0.00 0.15 0.00 94 1010.0
20260903100630 70 223 0.0 0.0 0.00 0.15 0.00 94 1010.1
20260903100127 70 223 0.0 0.0 0.00 0.15 0.00 94 1010.1
20260903095627 70 223 0.0 0.0 0.00 0.15 0.00 94 1010.0
20260903095427 70 223 0.0 0.0 0.00 0.15 0.00 94 1010.0
20260903094624 70 223 0.0 0.0 0.00 0.15 0.00 94 1010.1
20260903094120 70 223 0.0 0.0 0.00 0.15 0.00 94 1010.0
20260903093613 70 223 0.0 0.0 0.00 0.15 0.00 94 1009.9
20260903093413 70 223 0.0 0.0 0.00 0.15 0.00 94 1010.0
20260903092607 70 223 0.0 0.0 0.00 0.15 0.00 94 1009.8
20260903092105 70 223 0.0 0.0 0.00 0.15 0.00 94 1009.8
20260903091605 70 223 0.0 0.0 0.00 0.15 0.00 94 1009.8
20260903091103 70 223 0.0 0.0 0.00 0.15 0.00 94 1009.9
20260903090603 70 223 0.0 0.0 0.00 0.15 0.00 94 1010.0
20260903085602 70 223 0.0 0.0 0.00 0.15 0.00 94 1010.0
20260903085103 70 223 0.0 0.0 0.00 0.15 0.00 94 1010.0
20260903084603 70 223 0.0 0.0 0.00 0.15 0.00 94 1010.0
20260903084102 70 223 0.0 0.0 0.00 0.15 0.00 94 1010.0
20260903083602 70 223 0.0 0.0 0.00 0.15 0.00 94 1010.1
20260903083102 70 223 0.0 0.0 0.00 0.15 0.00 94 1010.3
20260903082909 70 223 0.0 0.0 0.00 0.15 0.00 94 1010.1
20260903082103 70 223 0.0 0.0 0.00 0.15 0.00 94 1010.3
20260903081602 71 223 0.0 0.0 0.00 0.16 0.00 94 1010.1
20260903081102 71 223 0.0 0.0 0.00 0.18 0.00 94 1010.1
20260903080603 71 223 0.0 0.0 0.00 0.24 0.00 94 1010.1
20260903080103 71 223 0.0 0.0 0.00 0.35 0.00 94 1010.0
20260903075603 71 223 0.0 0.0 0.00 0.57 0.00 94 1010.0
20260903075102 71 223 0.0 0.0 0.00 0.57 0.00 94 1010.0
20260903074602 71 223 0.0 0.0 0.00 0.57 0.00 94 1010.0
20260903074102 71 223 0.0 0.0 0.00 0.57 0.00 94 1010.0
20260903073603 71 223 0.0 0.0 0.00 0.57 0.00 94 1010.1
20260903073102 71 223 0.0 0.0 0.00 0.57 0.00 93 1010.3
20260903072603 71 223 0.0 0.0 0.00 0.57 0.00 93 1010.3
20260903072103 71 223 0.0 0.0 0.00 0.57 0.00 93 1010.3
20260903071913 71 223 0.0 0.0 0.00 0.57 0.00 93 1010.4
20260903071521 71 223 0.0 1.0 0.00 0.57 0.00 93 1010.5
20260903071517 71 223 0.0 0.0 0.00 0.57 0.00 94 1010.4
20260903070100 71 223 0.0 1.0 0.00 0.57 0.00 93 1010.5
20260903065601 71 223 0.0 0.0 0.00 0.57 0.00 93 1010.6
20260903065101 71 223 0.0 1.0 0.00 0.57 0.00 93 1010.6
20260903064600 71 223 0.0 1.0 0.00 0.57 0.00 93 1010.6
20260903064101 71 223 0.0 2.0 0.00 0.57 0.00 93 1010.7
20260903063600 71 223 1.0 3.0 0.00 0.57 0.00 93 1010.6
20260903063101 71 223 1.0 3.0 0.00 0.57 0.00 93 1010.6
20260903062601 71 222 0.0 3.0 0.00 0.57 0.00 93 1010.7
20260903062102 71 178 0.0 0.0 0.00 0.57 0.00 93 1010.7
20260903061907 71 178 0.0 0.0 0.00 0.57 0.00 93 1010.7
20260903061103 71 178 0.0 0.0 0.00 0.57 0.00 93 1010.7
20260903060601 72 178 0.0 0.0 0.00 0.57 0.00 93 1010.8
20260903060100 72 178 0.0 2.0 0.00 0.57 0.00 93 1010.8
20260903055600 72 178 0.0 2.0 0.00 0.57 0.00 93 1010.8
20260903055406 72 178 0.0 2.0 0.00 0.57 0.00 93 1010.9
20260903054555 72 178 0.0 1.0 0.00 0.57 0.00 93 1010.8
20260903054054 72 178 0.0 0.0 0.00 0.57 0.00 93 1010.9
20260903053555 72 178 0.0 0.0 0.00 0.57 0.00 92 1010.8
20260903053054 72 178 0.0 1.0 0.00 0.57 0.00 92 1010.8
20260903052552 72 178 0.0 1.0 0.00 0.62 0.00 92 1010.9
20260903052353 72 178 0.0 0.0 0.00 1.03 0.00 92 1011.0
20260903051551 72 178 0.0 1.0 0.00 1.03 0.00 92 1010.9
20260903051051 72 178 0.0 1.0 0.00 1.03 0.00 92 1011.0
20260903050858 72 178 0.0 1.0 0.00 1.03 0.00 92 1011.0
20260903050048 72 178 0.0 1.0 0.00 1.03 0.00 92 1011.0
20260903045859 72 178 0.0 1.0 0.00 1.03 1.03 92 1011.0
20260903045136 72 178 0.0 0.0 0.00 1.03 1.03 92 1011.0
20260903044049 72 178 0.0 0.0 0.00 1.06 1.03 92 1011.1
20260903043547 73 178 0.0 0.0 0.00 1.18 1.03 91 1011.1
20260903043206 73 178 0.0 0.0 0.00 1.31 1.03 91 1011.1
20260903043131 73 178 0.0 0.0 0.00 1.21 1.03 91 1011.1
20260903042044 73 178 0.0 0.0 0.00 1.33 1.03 91 1011.1
20260903041543 73 178 0.0 0.0 0.00 1.38 1.03 91 1011.1
20260903041042 73 178 0.0 0.0 0.00 1.38 1.03 91 1011.1
20260903040540 73 178 0.0 0.0 0.00 1.38 1.03 91 1011.1
20260903040038 73 178 0.0 0.0 0.00 1.38 1.03 91 1011.2
20260903035535 73 178 0.0 0.0 0.00 1.38 1.03 91 1011.1
20260903035343 73 178 0.0 0.0 0.00 1.38 1.03 91 1011.2
20260903034532 74 178 0.0 0.0 0.00 1.38 1.03 90 1011.2
20260903034030 74 178 0.0 0.0 0.00 1.38 1.03 90 1011.2
20260903033529 74 178 0.0 1.0 0.00 1.38 1.03 90 1011.2
20260903033030 74 178 0.0 1.0 0.00 1.38 1.03 90 1011.2
20260903032530 74 178 0.0 0.0 0.00 1.38 1.03 90 1011.2
20260903032030 74 178 0.0 1.0 0.00 1.38 1.03 90 1011.1
20260903031529 74 178 0.0 1.0 0.00 1.38 1.03 90 1011.1
20260903031033 74 178 0.0 0.0 0.00 1.38 1.03 89 1011.1
20260903030534 74 178 0.0 0.0 0.00 1.38 1.03 89 1011.1
20260903030030 74 178 0.0 0.0 0.00 1.38 1.03 89 1011.1
20260903025531 75 178 0.0 0.0 0.00 1.38 1.03 88 1011.1
20260903025031 75 178 0.0 0.0 0.00 1.38 1.03 88 1011.1
20260903024530 75 178 0.0 0.0 0.00 1.38 1.03 87 1011.2
20260903024030 75 178 0.0 0.0 0.00 1.38 1.03 87 1011.2
20260903023837 76 178 0.0 0.0 0.00 1.38 1.03 86 1011.2
20260903023434 76 178 0.0 0.0 0.00 1.38 1.03 86 1011.1
20260903023427 76 178 0.0 0.0 0.00 1.38 1.03 86 1011.1
20260903022030 76 178 0.0 0.0 0.00 1.38 1.03 85 1011.0
20260903021530 76 178 0.0 0.0 0.00 1.38 1.03 85 1011.1
20260903021029 76 178 0.0 0.0 0.00 1.38 1.03 85 1011.0
20260903020530 76 178 0.0 1.0 0.00 1.38 1.03 85 1010.9
20260903020029 76 178 0.0 1.0 0.00 1.38 1.03 85 1010.9
20260903015529 77 178 0.0 1.0 0.00 1.38 1.03 84 1010.9
20260903015029 77 178 0.0 1.0 0.00 1.38 1.03 84 1010.9
20260903014827 77 178 0.0 1.0 0.00 1.38 1.03 83 1010.8
20260903014030 77 178 0.0 0.0 0.00 1.38 1.03 82 1010.8
20260903013530 78 178 0.0 0.0 0.00 1.38 1.03 82 1010.7
20260903013336 78 178 0.0 1.0 0.00 1.38 1.03 81 1010.6
20260903012529 78 178 1.0 2.0 0.00 1.38 1.03 80 1010.5
20260903012030 78 178 1.0 2.0 0.00 1.38 1.03 80 1010.6
20260903011529 78 178 1.0 3.0 0.00 1.38 1.03 80 1010.6
20260903011029 79 178 1.0 3.0 0.00 1.38 1.03 79 1010.5
20260903010529 79 202 0.0 0.0 0.00 1.38 1.03 78 1010.5
20260903010028 79 202 0.0 0.0 0.00 1.38 1.03 78 1010.5
20260903005831 79 202 0.0 0.0 0.00 1.38 1.03 79 1010.4
20260903005030 80 202 0.0 0.0 0.00 1.38 1.03 79 1010.5
20260903004530 80 202 0.0 0.0 0.00 1.38 1.03 78 1010.5
20260903004030 80 202 0.0 0.0 0.00 1.38 1.03 78 1010.5
20260903003529 80 202 0.0 0.0 0.00 1.38 1.03 78 1010.5
20260903003029 81 202 0.0 0.0 0.00 1.38 1.03 77 1010.4
20260903002529 81 202 0.0 0.0 0.00 1.38 1.03 77 1010.4
20260903002029 81 202 0.0 0.0 0.00 1.39 1.03 75 1010.4
20260903001529 82 202 0.0 0.0 0.00 1.39 1.03 74 1010.4
20260903001324 82 202 0.0 0.0 0.00 1.39 1.03 74 1010.3
20260903000532 82 202 0.0 0.0 0.00 1.39 1.03 71 1010.1
20260903000135 83 202 0.0 0.0 0.00 1.39 1.03 74 1009.8
20260903000115 82 202 0.0 0.0 0.00 1.39 1.03 72 1009.8
20260902235031 83 202 0.0 0.0 0.00 1.39 1.03 72 1010.0
20260902234530 83 201 0.0 0.0 0.00 1.39 1.03 71 1010.1
20260902234030 83 202 0.0 0.0 0.00 1.39 1.03 70 1010.1
20260902233532 84 202 0.0 0.0 0.00 1.39 1.03 68 1010.0
20260902233130 84 202 1.0 3.0 0.00 1.39 1.03 68 1010.0
20260902233111 84 202 0.0 2.0 0.00 1.39 1.03 68 1010.0
20260902232140 84 203 1.0 2.0 0.00 1.39 1.03 67 1010.0
20260902232112 84 202 1.0 3.0 0.00 1.39 1.03 67 1010.0
20260902231029 84 203 1.0 2.0 0.00 1.39 1.03 67 1010.0
20260902230529 85 202 1.0 2.0 0.00 1.39 1.03 66 1010.0
20260902230325 85 202 1.0 3.0 0.00 1.39 1.03 66 1010.1
20260902225528 85 202 2.0 3.0 0.00 1.39 1.03 66 1010.1
20260902225031 85 214 2.0 3.0 0.00 1.39 1.03 65 1010.1
20260902224529 85 214 1.0 3.0 0.00 1.39 1.03 66 1010.1
20260902224029 85 214 1.0 3.0 0.00 1.39 1.03 65 1010.0
20260902223531 85 214 1.0 3.0 0.00 1.39 1.03 66 1010.0
20260902223029 85 214 1.0 3.0 0.00 1.39 1.03 64 1010.1
20260902222528 85 214 1.0 3.0 0.00 1.39 1.03 64 1010.1
20260902222028 85 214 2.0 3.0 0.00 1.39 1.03 63 1010.1
20260902221529 85 214 2.0 3.0 0.00 1.39 1.03 65 1010.1
20260902221028 85 231 2.0 3.0 0.00 1.39 1.03 65 1010.1
20260902220531 85 228 2.0 3.0 0.00 1.39 1.03 65 1010.1
20260902220032 85 216 2.0 4.0 0.00 1.39 1.03 64 1010.1
20260902215531 85 217 2.0 4.0 0.00 1.39 1.03 65 1010.3
20260902215338 85 220 2.0 3.0 0.00 1.39 1.03 65 1010.3
20260902214530 85 220 2.0 3.0 0.00 1.39 1.03 64 1010.3